Voltar ao catálogo

SLIPPERS2SAT

AtivoCiênciaSSO
NORAD 67001·PAYLOAD·🇨🇳 China
Este nome de satélite ainda não foi confirmado por fontes oficiais.

Lançado Dec 10, 2025 de Jiuquan Satellite Launch Center

Loading…

Próximas Passagens (próximas 24 horas)

TLE

AtualizadoSource: Space-Track

Época: Sep 14, 2026, 03:37 UTC

1 67001U 25292J   26257.15071279  .00004122  00000-0  27705-3 0  9991
2 67001  97.6280 332.1838 0016072  55.9357 304.3394 15.07223720 41848

Acompanhe SLIPPERS2SAT em tempo real com AllMySat

Download on the App Store